Home > Time Zones > World Clock > Weather > Germany > Ulm > Past weeks

Flag for Germany Weather past 2 weeks in Ulm, Baden-Württemberg, Germany

Now
52 °F

Overcast.


Feels Like: 47 °F
Forecast: 48 / 52 °F
Wind: 13 mph from Southwest

Location: Laupheim Airport

Current Time: Mar 28, 2015 at 7:10:09 PM

Latest Report: Mar 28, 2015 at 6:20 PM


Visibility: N/A

Pressure: 30.04 "Hg

Humidity: 47%

Dew point: 32 °F

Location of UlmLocation

Historic Weather in Ulm — Graph

°F

Ulm temperature yesterday

Maximum temperature yesterday: 46 °F (at 12:00 PM)
Minimum temperature yesterday: 39 °F (at 12:20 AM)
Average temperature yesterday: 42 °F

Past Weeks' High & Low Weather Summary

 TemperatureHumidityPressure
High61 °F (Mar 18, 2:20 PM)100% (Mar 14, 4:20 AM)30.24 "Hg (Mar 14, 4:20 AM)
Low28 °F (Mar 14, 2:20 AM)31% (Mar 20, 4:20 PM)29.53 "Hg (Mar 25, 2:20 PM)
Average42 °F74%30.03 "Hg
* Reported Mar 13 5:20 PM — Mar 28 5:20 PM, Ulm, Weather by CustomWeather, © 2015

Note: Actual official high and low records may vary slightly from our data, if they occured in-between our weather recording intervals... More about our weather records

Advertising

Ulm weather history for previous 24 hours

 ConditionsComfort  
Time TempWeatherWind HumidityBarometerVisibility
5:20 PM
Sat, Mar 28
54 °FPartly sunny.12 mph44%30.04 "HgN/A
4:20 PM54 °FPartly sunny.10 mph41%30.04 "HgN/A
3:20 PM54 °FScattered clouds.9 mph41%30.04 "HgN/A
2:20 PM52 °FScattered clouds.12 mph44%30.07 "HgN/A
1:20 PM52 °FPassing clouds.13 mph44%30.09 "HgN/A
12:20 PM50 °FPassing clouds.10 mph47%30.12 "HgN/A
11:20 AM46 °FPassing clouds.12 mph53%30.15 "HgN/A
10:20 AM45 °FPassing clouds.5 mph57%30.18 "HgN/A
9:20 AM41 °FScattered clouds.2 mph66%30.21 "HgN/A
8:20 AM37 °FPartly sunny.2 mph75%30.21 "HgN/A
7:20 AM34 °FPartly sunny.3 mph87%30.24 "HgN/A
6:20 AM34 °FPartly sunny.3 mph81%30.24 "HgN/A
5:20 AM34 °FPassing clouds.5 mph81%30.21 "HgN/A
4:20 AM32 °FPassing clouds.5 mph87%30.21 "HgN/A
3:20 AM34 °FPassing clouds.6 mph81%30.24 "HgN/A
2:20 AM34 °FPassing clouds.6 mph81%30.24 "HgN/A
1:20 AM36 °FPassing clouds.6 mph75%30.24 "HgN/A
12:20 AM37 °FPassing clouds.6 mph75%30.24 "HgN/A
11:20 PM
Fri, Mar 27
39 °FPassing clouds.5 mph70%30.21 "HgN/A
10:20 PM39 °FPassing clouds.3 mph70%30.21 "HgN/A
9:20 PM41 °FPassing clouds.3 mph66%30.21 "HgN/A
8:20 PM41 °FPassing clouds.2 mph66%30.18 "HgN/A
7:20 PM43 °FPassing clouds.3 mph57%30.18 "HgN/A
Weather by CustomWeather, © 2015

See weather overviewHow to use our weather pages